TimeCDT,TemperatureF,Dew PointF,Humidity,Sea Level PressureIn,VisibilityMPH,Wind Direction,Wind SpeedMPH,Gust SpeedMPH,PrecipitationIn,Events,Conditions,WindDirDegrees,DateUTC
12:08 AM,62.6,62.6,100,29.84,10.0,West,8.1,-,0.01,Rain,Light Rain,270,2013-10-06 05:08:00
12:20 AM,60.8,59.0,94,29.83,10.0,West,13.8,25.3,0.01,Rain,Light Rain,270,2013-10-06 05:20:00
12:27 AM,60.8,57.2,88,29.82,10.0,West,12.7,-,0.01,Rain,Light Rain,270,2013-10-06 05:27:00
12:34 AM,60.8,57.2,88,29.84,10.0,West,12.7,-,0.02,Rain,Light Rain,260,2013-10-06 05:34:00
12:41 AM,60.8,57.2,88,29.84,10.0,West,12.7,-,0.02,Rain,Light Rain,260,2013-10-06 05:41:00
12:53 AM,61.0,57.9,90,29.83,10.0,West,11.5,-,0.02,,Overcast,260,2013-10-06 05:53:00
1:53 AM,57.0,50.0,77,29.85,10.0,West,10.4,-,0.00,,Overcast,280,2013-10-06 06:53:00
2:53 AM,57.0,53.1,87,29.83,10.0,West,6.9,-,0.00,Rain,Light Rain,280,2013-10-06 07:53:00
3:02 AM,55.4,53.6,94,29.83,10.0,West,6.9,-,0.00,Rain,Light Rain,280,2013-10-06 08:02:00
3:53 AM,55.9,53.1,90,29.84,10.0,West,10.4,-,0.00,Rain,Light Rain,260,2013-10-06 08:53:00
4:53 AM,54.0,52.0,93,29.85,10.0,West,4.6,-,0.01,Rain,Light Rain,270,2013-10-06 09:53:00
5:53 AM,55.0,52.0,89,29.83,10.0,SW,3.5,-,0.00,,Overcast,230,2013-10-06 10:53:00
6:53 AM,54.0,52.0,93,29.82,10.0,WSW,9.2,-,N/A,,Mostly Cloudy,250,2013-10-06 11:53:00
7:53 AM,53.1,51.1,93,29.82,10.0,SW,4.6,-,N/A,,Clear,230,2013-10-06 12:53:00
8:53 AM,54.0,50.0,86,29.82,10.0,SW,9.2,-,N/A,,Clear,230,2013-10-06 13:53:00
9:53 AM,55.0,50.0,83,29.81,10.0,WSW,11.5,-,N/A,,Clear,240,2013-10-06 14:53:00
10:53 AM,59.0,46.9,64,29.81,10.0,SW,11.5,-,N/A,,Clear,230,2013-10-06 15:53:00
11:53 AM,62.1,41.0,46,29.79,10.0,SW,11.5,18.4,N/A,,Clear,230,2013-10-06 16:53:00
12:53 PM,64.0,39.9,41,29.76,10.0,WSW,16.1,25.3,N/A,,Clear,250,2013-10-06 17:53:00
1:53 PM,64.0,39.9,41,29.75,10.0,SW,15.0,28.8,N/A,,Partly Cloudy,220,2013-10-06 18:53:00
2:53 PM,60.1,41.0,49,29.76,10.0,West,18.4,29.9,N/A,,Mostly Cloudy,260,2013-10-06 19:53:00
3:53 PM,55.9,39.9,55,29.79,10.0,West,19.6,31.1,N/A,,Mostly Cloudy,260,2013-10-06 20:53:00
4:53 PM,55.9,36.0,47,29.81,10.0,WSW,18.4,26.5,N/A,,Scattered Clouds,250,2013-10-06 21:53:00
5:53 PM,53.1,37.0,55,29.83,10.0,WSW,15.0,-,N/A,,Mostly Cloudy,250,2013-10-06 22:53:00
6:53 PM,50.0,39.0,66,29.84,10.0,WSW,10.4,-,N/A,,Scattered Clouds,240,2013-10-06 23:53:00
7:53 PM,48.9,43.0,80,29.85,10.0,West,15.0,26.5,0.00,Rain,Light Rain,260,2013-10-07 00:53:00
8:53 PM,46.9,43.0,86,29.85,10.0,WSW,8.1,-,0.00,,Partly Cloudy,240,2013-10-07 01:53:00
9:53 PM,46.9,44.1,90,29.84,10.0,SW,5.8,-,N/A,,Mostly Cloudy,230,2013-10-07 02:53:00
10:53 PM,48.9,44.1,83,29.83,10.0,SW,6.9,-,N/A,,Overcast,230,2013-10-07 03:53:00
11:41 PM,48.2,46.4,93,29.83,10.0,WSW,3.5,-,0.00,Rain,Light Rain,250,2013-10-07 04:41:00
11:51 PM,48.2,46.4,93,29.83,10.0,West,3.5,-,0.00,Rain,Light Rain,270,2013-10-07 04:51:00
11:53 PM,48.0,46.0,93,29.83,10.0,Calm,Calm,-,0.01,Rain,Light Rain,0,2013-10-07 04:53:00